Location: Fort Worth, Tx
(32.7431°N, 97.3695°W)
Time: 18:46:27
(UTC-04:00)

Transit 4A - Pass Details

Date: 05 March 2024
Orbit: 871 x 972 km, 66.8° (Epoch: 21 April)

Event Time Altitude Azimuth Distance (km) Brightness Sun altitude
Rises 10:52:15 0° 322° (NW) 3,466 10.4 34.5°
Reaches altitude 10° 10:54:57 10° 313° (NW) 2,520 9.8 35.0°
Maximum altitude 11:00:03 32° 252° (WSW) 1,438 8.9 35.9°
Drops below altitude 10° 11:05:09 10° 190° (S) 2,517 10.6 36.7°
Sets 11:07:51 0° 181° (S) 3,461 11.3 37.1°
